AFL1029 OBBI-OMDB

Flight info

Callsign AFL1029
Flight time N/A
Altitude 25000
Route BHR075/12L DCT BHR N697 SODAK P559 VUTEB VUTE3D
Aircraft A320/M-VGDW/C

Departure

Time 2026-04-27 16:58
Airport Bahrain International Airport (OBBI)

Arrival

Time N/A
Airport Dubai International Airport (OMDB)
Time Latitude Longitude Altitude Speed Heading
2026-04-27 16:22 26.26869 50.62955 27 ft 0 kts 213°
2026-04-27 16:41 26.26879 50.62962 27 ft 2 kts 212°
2026-04-27 16:41 26.26895 50.62974 27 ft 2 kts 213°
2026-04-27 16:42 26.26904 50.62980 27 ft 2 kts 213°
2026-04-27 16:42 26.26917 50.62989 27 ft 2 kts 213°
2026-04-27 16:42 26.26929 50.62999 27 ft 2 kts 237°
2026-04-27 16:42 26.26935 50.63021 27 ft 2 kts 274°
2026-04-27 16:43 26.26933 50.63032 27 ft 2 kts 292°
2026-04-27 16:43 26.26929 50.63039 27 ft 1 kts 307°
2026-04-27 16:43 26.26927 50.63043 27 ft 0 kts 303°
2026-04-27 16:47 26.26927 50.63042 27 ft 0 kts 303°
2026-04-27 16:47 26.26929 50.63040 27 ft 0 kts 303°
2026-04-27 16:48 26.26929 50.63039 27 ft 0 kts 303°
2026-04-27 16:48 26.26932 50.63035 27 ft 1 kts 302°
2026-04-27 16:48 26.26944 50.63014 27 ft 4 kts 303°
2026-04-27 16:49 26.26992 50.62930 30 ft 7 kts 303°
2026-04-27 16:49 26.27038 50.62888 30 ft 10 kts 348°
2026-04-27 16:49 26.27118 50.62906 30 ft 13 kts 355°
2026-04-27 16:49 26.27189 50.62835 32 ft 14 kts 303°
2026-04-27 16:50 26.27249 50.62734 33 ft 16 kts 303°
2026-04-27 16:50 26.27313 50.62623 34 ft 18 kts 303°
2026-04-27 16:50 26.27390 50.62492 30 ft 22 kts 302°
2026-04-27 16:50 26.27514 50.62277 24 ft 26 kts 303°
2026-04-27 16:51 26.27583 50.62157 20 ft 28 kts 303°
2026-04-27 16:51 26.27678 50.61998 15 ft 18 kts 308°
2026-04-27 16:51 26.27751 50.61878 15 ft 18 kts 303°
2026-04-27 16:51 26.27793 50.61805 15 ft 0 kts 303°
2026-04-27 16:52 26.27796 50.61801 15 ft 1 kts 303°
2026-04-27 16:52 26.27803 50.61788 15 ft 0 kts 303°
2026-04-27 16:53 26.27804 50.61787 15 ft 0 kts 303°
2026-04-27 16:53 26.27809 50.61778 15 ft 1 kts 303°
2026-04-27 16:53 26.27822 50.61756 15 ft 3 kts 303°
2026-04-27 16:54 26.27823 50.61753 15 ft 0 kts 303°
2026-04-27 16:55 26.27835 50.61734 15 ft 6 kts 303°
2026-04-27 16:55 26.27876 50.61678 15 ft 12 kts 322°
2026-04-27 16:55 26.27969 50.61662 15 ft 11 kts 24°
2026-04-27 16:55 26.28002 50.61765 15 ft 12 kts 117°
2026-04-27 16:56 26.27974 50.61815 15 ft 4 kts 123°
2026-04-27 16:56 26.27973 50.61816 15 ft 0 kts 123°
2026-04-27 16:57 26.27877 50.61980 15 ft 68 kts 123°
2026-04-27 16:58 26.27473 50.62683 33 ft 145 kts 123°
2026-04-27 16:58 26.26826 50.63784 321 ft 184 kts 123°
2026-04-27 16:58 26.26122 50.65013 1007 ft 200 kts 117°
2026-04-27 16:58 26.25599 50.66484 1845 ft 214 kts 101°
2026-04-27 16:59 26.25562 50.68157 2741 ft 226 kts 81°
2026-04-27 16:59 26.25856 50.69952 3574 ft 246 kts 78°
2026-04-27 16:59 26.26209 50.71878 4484 ft 264 kts 78°
2026-04-27 16:59 26.26751 50.74620 4266 ft 280 kts 77°
2026-04-27 17:00 26.27332 50.77466 3721 ft 277 kts 78°
2026-04-27 17:00 26.27811 50.80143 3694 ft 255 kts 79°
2026-04-27 17:00 26.28110 50.82038 3686 ft 243 kts 79°
2026-04-27 17:01 26.28433 50.83899 3686 ft 243 kts 78°
2026-04-27 17:01 26.29054 50.85643 3658 ft 247 kts 50°
2026-04-27 17:01 26.30479 50.86688 4073 ft 256 kts 21°
2026-04-27 17:01 26.32114 50.87362 5147 ft 251 kts 21°
2026-04-27 17:02 26.33729 50.88073 6019 ft 253 kts 22°
2026-04-27 17:02 26.35357 50.88820 6529 ft 254 kts 23°
2026-04-27 17:02 26.36971 50.89576 6771 ft 255 kts 23°
2026-04-27 17:02 26.38604 50.90350 6789 ft 255 kts 24°
2026-04-27 17:03 26.40242 50.91132 6849 ft 259 kts 24°
2026-04-27 17:03 26.41894 50.91924 7445 ft 265 kts 24°
2026-04-27 17:03 26.43572 50.92730 8459 ft 262 kts 24°
2026-04-27 17:03 26.45220 50.93522 9322 ft 264 kts 24°
2026-04-27 17:04 26.47466 50.94603 10414 ft 268 kts 24°
2026-04-27 17:04 26.48615 50.95157 10961 ft 270 kts 24°
2026-04-27 17:04 26.50341 50.95988 11763 ft 273 kts 24°
2026-04-27 17:04 26.52085 50.96829 12442 ft 281 kts 24°
2026-04-27 17:05 26.53927 50.97718 12892 ft 298 kts 24°
2026-04-27 17:05 26.56504 50.98958 13840 ft 306 kts 25°
2026-04-27 17:05 26.57501 50.99438 14226 ft 309 kts 25°
2026-04-27 17:05 26.59480 51.00393 14967 ft 313 kts 25°
2026-04-27 17:06 26.61468 51.01353 15682 ft 318 kts 26°
2026-04-27 17:06 26.63517 51.02344 16382 ft 324 kts 26°
2026-04-27 17:06 26.65627 51.03367 16818 ft 338 kts 26°
2026-04-27 17:06 26.67830 51.04436 17264 ft 351 kts 26°
2026-04-27 17:07 26.70063 51.05517 17900 ft 357 kts 26°
2026-04-27 17:07 26.72339 51.06648 18549 ft 362 kts 30°
2026-04-27 17:07 26.74322 51.08349 19123 ft 362 kts 52°
2026-04-27 17:07 26.75577 51.10746 19701 ft 361 kts 75°
2026-04-27 17:08 26.75950 51.13502 20241 ft 360 kts 96°
2026-04-27 17:08 26.75425 51.16201 20814 ft 359 kts 112°
2026-04-27 17:08 26.74565 51.18819 21447 ft 362 kts 114°
2026-04-27 17:08 26.73670 51.21475 22038 ft 367 kts 114°
2026-04-27 17:09 26.72772 51.24175 22624 ft 371 kts 114°
2026-04-27 17:09 26.71887 51.26877 23191 ft 376 kts 114°
2026-04-27 17:09 26.71000 51.29613 23739 ft 380 kts 114°
2026-04-27 17:09 26.70097 51.32412 24274 ft 384 kts 114°
2026-04-27 17:10 26.69196 51.35210 24675 ft 390 kts 114°
2026-04-27 17:10 26.68245 51.38157 24789 ft 406 kts 114°
2026-04-27 17:10 26.67275 51.41153 24799 ft 422 kts 114°
2026-04-27 17:10 26.66261 51.44288 24803 ft 438 kts 113°
2026-04-27 17:11 26.65207 51.47550 24803 ft 449 kts 113°
2026-04-27 17:11 26.63049 51.54249 24803 ft 464 kts 113°
2026-04-27 17:11 26.61961 51.57641 24803 ft 464 kts 113°
2026-04-27 17:12 26.59787 51.64417 24810 ft 465 kts 113°
2026-04-27 17:12 26.58697 51.67809 24851 ft 465 kts 113°
2026-04-27 17:12 26.57613 51.71184 24893 ft 465 kts 113°
2026-04-27 17:13 26.56523 51.74566 24928 ft 465 kts 114°